Time,TemperatureF,DewpointF,PressureIn,WindDirection,WindDirectionDegrees,WindSpeedMPH,WindSpeedGustMPH,Humidity,HourlyPrecipIn,Conditions,Clouds,dailyrainin,SolarRadiationWatts/m^2,SoftwareType,DateUTC
2013-05-02 00:12:00,8.0,4.0,-100.00,NNW,341,1.0,5.0,84,0.00,,,0.04,0.000000,,2013-05-02 06:12:00,
2013-05-02 00:21:00,8.0,4.0,-100.00,NNW,341,1.0,5.0,84,0.00,,,0.04,0.000000,,2013-05-02 06:21:00,
2013-05-02 00:32:00,8.0,4.0,-100.00,NNW,341,1.0,5.0,84,0.00,,,0.04,0.000000,,2013-05-02 06:32:00,
2013-05-02 00:42:00,8.0,4.0,-100.00,NNW,341,1.0,5.0,84,0.00,,,0.04,0.000000,,2013-05-02 06:42:00,
2013-05-02 00:52:00,8.0,4.0,-100.00,NNW,341,1.0,5.0,84,0.00,,,0.04,0.000000,,2013-05-02 06:52:00,
2013-05-02 01:11:00,7.0,3.0,-100.00,NNE,21,1.0,4.0,83,0.00,,,0.04,0.000000,,2013-05-02 07:11:00,
2013-05-02 01:21:00,7.0,3.0,-100.00,NNE,21,1.0,4.0,83,0.00,,,0.04,0.000000,,2013-05-02 07:21:00,
2013-05-02 01:32:00,7.0,3.0,-100.00,NNE,21,1.0,4.0,83,0.00,,,0.04,0.000000,,2013-05-02 07:32:00,
2013-05-02 01:42:00,7.0,3.0,-100.00,NNE,21,1.0,4.0,83,0.00,,,0.04,0.000000,,2013-05-02 07:42:00,
2013-05-02 01:52:00,7.0,3.0,-100.00,NNE,21,1.0,4.0,83,0.00,,,0.04,0.000000,,2013-05-02 07:52:00,
2013-05-02 02:22:00,7.0,3.0,-100.00,South,191,3.0,4.0,82,0.00,,,0.04,0.000000,,2013-05-02 08:22:00,
2013-05-02 02:32:00,7.0,3.0,-100.00,South,191,3.0,4.0,82,0.00,,,0.04,0.000000,,2013-05-02 08:32:00,
2013-05-02 02:42:00,7.0,3.0,-100.00,South,191,3.0,4.0,82,0.00,,,0.04,0.000000,,2013-05-02 08:42:00,
2013-05-02 02:52:00,7.0,3.0,-100.00,South,191,3.0,4.0,82,0.00,,,0.04,0.000000,,2013-05-02 08:52:00,
2013-05-02 03:21:00,8.0,5.0,-100.00,South,175,2.0,5.0,86,0.00,,,0.04,0.000000,,2013-05-02 09:21:00,
2013-05-02 03:32:00,8.0,5.0,-100.00,South,175,2.0,5.0,86,0.00,,,0.04,0.000000,,2013-05-02 09:32:00,
2013-05-02 03:42:00,8.0,5.0,-100.00,South,175,2.0,5.0,86,0.00,,,0.04,0.000000,,2013-05-02 09:42:00,
2013-05-02 03:52:00,8.0,5.0,-100.00,South,175,2.0,5.0,86,0.00,,,0.04,0.000000,,2013-05-02 09:52:00,
2013-05-02 04:22:00,4.0,-1.0,-100.00,NNW,342,2.0,3.0,79,0.00,,,0.04,0.000000,,2013-05-02 10:22:00,
2013-05-02 04:33:00,4.0,-1.0,-100.00,NNW,342,2.0,3.0,79,0.00,,,0.04,0.000000,,2013-05-02 10:33:00,
2013-05-02 04:42:00,4.0,-1.0,-100.00,NNW,342,2.0,3.0,79,0.00,,,0.04,0.000000,,2013-05-02 10:42:00,
2013-05-02 04:52:00,4.0,-1.0,-100.00,NNW,342,2.0,3.0,79,0.00,,,0.04,0.000000,,2013-05-02 10:52:00,
2013-05-02 05:22:00,4.0,0.0,-100.00,NW,325,1.0,3.0,84,0.00,,,0.04,0.000000,,2013-05-02 11:22:00,
2013-05-02 05:32:00,4.0,0.0,-100.00,NW,325,1.0,3.0,84,0.00,,,0.04,0.000000,,2013-05-02 11:32:00,
2013-05-02 05:42:00,4.0,0.0,-100.00,NW,325,1.0,3.0,84,0.00,,,0.04,0.000000,,2013-05-02 11:42:00,
2013-05-02 05:52:00,4.0,0.0,-100.00,NW,325,1.0,3.0,84,0.00,,,0.04,0.000000,,2013-05-02 11:52:00,
2013-05-02 06:21:00,5.0,1.0,-100.00,NE,40,0.0,2.0,82,0.00,,,0.04,0.000000,,2013-05-02 12:21:00,
2013-05-02 06:32:00,5.0,1.0,-100.00,NE,40,0.0,2.0,82,0.00,,,0.04,0.000000,,2013-05-02 12:32:00,
2013-05-02 06:42:00,5.0,1.0,-100.00,NE,40,0.0,2.0,82,0.00,,,0.04,0.000000,,2013-05-02 12:42:00,
2013-05-02 06:52:00,5.0,1.0,-100.00,NE,40,0.0,2.0,82,0.00,,,0.04,0.000000,,2013-05-02 12:52:00,
2013-05-02 07:21:00,5.0,0.0,-100.00,South,179,0.0,2.0,81,0.00,,,0.04,3.000000,,2013-05-02 13:21:00,
2013-05-02 07:32:00,5.0,0.0,-100.00,South,179,0.0,2.0,81,0.00,,,0.04,3.000000,,2013-05-02 13:32:00,
2013-05-02 07:42:00,5.0,0.0,-100.00,South,179,0.0,2.0,81,0.00,,,0.04,3.000000,,2013-05-02 13:42:00,
2013-05-02 07:52:00,5.0,0.0,-100.00,South,179,0.0,2.0,81,0.00,,,0.04,3.000000,,2013-05-02 13:52:00,
2013-05-02 08:22:00,13.0,7.0,-100.00,South,182,0.0,2.0,76,0.00,,,0.04,64.000000,,2013-05-02 14:22:00,
2013-05-02 08:32:00,13.0,7.0,-100.00,South,182,0.0,2.0,76,0.00,,,0.04,64.000000,,2013-05-02 14:32:00,
2013-05-02 08:42:00,13.0,7.0,-100.00,South,182,0.0,2.0,76,0.00,,,0.04,64.000000,,2013-05-02 14:42:00,
2013-05-02 08:52:00,13.0,7.0,-100.00,South,182,0.0,2.0,76,0.00,,,0.04,64.000000,,2013-05-02 14:52:00,
2013-05-02 09:22:00,19.0,9.0,-100.00,South,189,3.0,4.0,65,0.01,,,0.05,138.000000,,2013-05-02 15:22:00,
2013-05-02 09:33:00,19.0,9.0,-100.00,South,189,3.0,4.0,65,0.01,,,0.05,138.000000,,2013-05-02 15:33:00,
2013-05-02 09:43:00,19.0,9.0,-100.00,South,189,3.0,4.0,65,0.01,,,0.05,138.000000,,2013-05-02 15:43:00,
2013-05-02 10:22:00,21.0,8.0,-100.00,South,183,5.0,6.0,57,0.02,,,0.07,167.000000,,2013-05-02 16:22:00,
2013-05-02 10:32:00,21.0,8.0,-100.00,South,183,5.0,6.0,57,0.02,,,0.07,167.000000,,2013-05-02 16:32:00,
2013-05-02 10:43:00,21.0,8.0,-100.00,South,183,5.0,6.0,57,0.02,,,0.07,167.000000,,2013-05-02 16:43:00,
2013-05-02 10:52:00,21.0,8.0,-100.00,South,183,5.0,6.0,57,0.02,,,0.07,167.000000,,2013-05-02 16:52:00,
2013-05-02 11:12:00,18.0,7.0,-100.00,SSW,192,5.0,9.0,61,0.04,,,0.11,145.000000,,2013-05-02 17:12:00,
2013-05-02 11:22:00,18.0,7.0,-100.00,SSW,192,5.0,9.0,61,0.04,,,0.11,145.000000,,2013-05-02 17:22:00,
2013-05-02 11:32:00,18.0,7.0,-100.00,SSW,192,5.0,9.0,61,0.04,,,0.11,145.000000,,2013-05-02 17:32:00,
2013-05-02 11:42:00,18.0,7.0,-100.00,SSW,192,5.0,9.0,61,0.04,,,0.11,145.000000,,2013-05-02 17:42:00,
2013-05-02 11:52:00,18.0,7.0,-100.00,SSW,192,5.0,9.0,61,0.04,,,0.11,145.000000,,2013-05-02 17:52:00,
2013-05-02 12:22:00,24.0,8.0,-100.00,South,182,7.0,10.0,50,0.03,,,0.14,177.000000,,2013-05-02 18:22:00,
2013-05-02 12:32:00,24.0,8.0,-100.00,South,182,7.0,10.0,50,0.03,,,0.14,177.000000,,2013-05-02 18:32:00,
2013-05-02 12:42:00,24.0,8.0,-100.00,South,182,7.0,10.0,50,0.03,,,0.14,177.000000,,2013-05-02 18:42:00,
2013-05-02 12:52:00,24.0,8.0,-100.00,South,182,7.0,10.0,50,0.03,,,0.14,177.000000,,2013-05-02 18:52:00,
2013-05-02 13:22:00,34.0,5.0,-100.00,West,274,5.0,12.0,29,0.06,,,0.20,367.000000,,2013-05-02 19:22:00,
2013-05-02 13:32:00,34.0,5.0,-100.00,West,274,5.0,12.0,29,0.06,,,0.20,367.000000,,2013-05-02 19:32:00,
2013-05-02 13:42:00,34.0,5.0,-100.00,West,274,5.0,12.0,29,0.06,,,0.20,367.000000,,2013-05-02 19:42:00,
2013-05-02 13:52:00,34.0,5.0,-100.00,West,274,5.0,12.0,29,0.06,,,0.20,367.000000,,2013-05-02 19:52:00,
2013-05-02 14:22:00,34.0,7.0,-100.00,WNW,293,5.0,13.0,31,0.06,,,0.26,955.000000,,2013-05-02 20:22:00,
2013-05-02 14:32:00,34.0,7.0,-100.00,WNW,293,5.0,13.0,31,0.06,,,0.26,955.000000,,2013-05-02 20:32:00,
2013-05-02 14:41:00,34.0,7.0,-100.00,WNW,293,5.0,13.0,31,0.06,,,0.26,955.000000,,2013-05-02 20:41:00,
2013-05-02 14:52:00,34.0,7.0,-100.00,WNW,293,5.0,13.0,31,0.06,,,0.26,955.000000,,2013-05-02 20:52:00,
2013-05-02 15:21:00,35.0,7.0,-100.00,WNW,296,6.0,15.0,31,0.14,,,0.38,903.000000,,2013-05-02 21:21:00,
2013-05-02 15:33:00,35.0,7.0,-100.00,WNW,296,6.0,15.0,31,0.14,,,0.38,903.000000,,2013-05-02 21:33:00,
2013-05-02 15:42:00,35.0,7.0,-100.00,WNW,296,6.0,15.0,31,0.14,,,0.38,903.000000,,2013-05-02 21:42:00,
2013-05-02 15:53:00,35.0,7.0,-100.00,WNW,296,6.0,15.0,31,0.14,,,0.38,903.000000,,2013-05-02 21:53:00,
2013-05-02 16:12:00,34.0,6.0,-100.00,NW,313,7.0,17.0,30,0.12,,,0.49,825.000000,,2013-05-02 22:12:00,
2013-05-02 16:22:00,34.0,6.0,-100.00,NW,313,7.0,17.0,30,0.12,,,0.49,825.000000,,2013-05-02 22:22:00,
2013-05-02 16:32:00,34.0,6.0,-100.00,NW,313,7.0,17.0,30,0.12,,,0.49,825.000000,,2013-05-02 22:32:00,
2013-05-02 16:42:00,34.0,6.0,-100.00,NW,313,7.0,17.0,30,0.12,,,0.49,825.000000,,2013-05-02 22:42:00,
2013-05-02 16:52:00,34.0,6.0,-100.00,NW,313,7.0,17.0,30,0.12,,,0.49,825.000000,,2013-05-02 22:52:00,
2013-05-02 17:22:00,34.0,7.0,-100.00,NW,313,6.0,18.0,32,0.02,,,0.50,679.000000,,2013-05-02 23:22:00,
2013-05-02 17:32:00,34.0,7.0,-100.00,NW,313,6.0,18.0,32,0.02,,,0.50,679.000000,,2013-05-02 23:32:00,
2013-05-02 17:42:00,34.0,7.0,-100.00,NW,313,6.0,18.0,32,0.02,,,0.50,679.000000,,2013-05-02 23:42:00,
2013-05-02 17:51:00,34.0,7.0,-100.00,NW,313,6.0,18.0,32,0.02,,,0.50,679.000000,,2013-05-02 23:51:00,
2013-05-02 18:21:00,34.0,8.0,-100.00,NNE,20,5.0,15.0,33,0.00,,,0.50,492.000000,,2013-05-03 00:21:00,
2013-05-02 18:31:00,34.0,8.0,-100.00,NNE,20,5.0,15.0,33,0.00,,,0.50,492.000000,,2013-05-03 00:31:00,
2013-05-02 18:42:00,34.0,8.0,-100.00,NNE,20,5.0,15.0,33,0.00,,,0.50,492.000000,,2013-05-03 00:42:00,
2013-05-02 18:52:00,34.0,8.0,-100.00,NNE,20,5.0,15.0,33,0.00,,,0.50,492.000000,,2013-05-03 00:52:00,
2013-05-02 19:21:00,30.0,7.0,-100.00,NE,54,4.0,16.0,37,0.00,,,0.50,286.000000,,2013-05-03 01:21:00,
2013-05-02 19:31:00,30.0,7.0,-100.00,NE,54,4.0,16.0,37,0.00,,,0.50,286.000000,,2013-05-03 01:31:00,
2013-05-02 19:42:00,30.0,7.0,-100.00,NE,54,4.0,16.0,37,0.00,,,0.50,286.000000,,2013-05-03 01:42:00,
2013-05-02 19:52:00,30.0,7.0,-100.00,NE,54,4.0,16.0,37,0.00,,,0.50,286.000000,,2013-05-03 01:52:00,
2013-05-02 20:22:00,24.0,8.0,-100.00,ENE,78,3.0,16.0,49,0.00,,,0.50,65.000000,,2013-05-03 02:22:00,
2013-05-02 20:32:00,24.0,8.0,-100.00,ENE,78,3.0,16.0,49,0.00,,,0.50,65.000000,,2013-05-03 02:32:00,
2013-05-02 20:42:00,24.0,8.0,-100.00,ENE,78,3.0,16.0,49,0.00,,,0.50,65.000000,,2013-05-03 02:42:00,
2013-05-02 20:52:00,24.0,8.0,-100.00,ENE,78,3.0,16.0,49,0.00,,,0.50,65.000000,,2013-05-03 02:52:00,
2013-05-02 21:21:00,22.0,8.0,-100.00,NNE,33,5.0,15.0,53,0.00,,,0.50,1.000000,,2013-05-03 03:21:00,
2013-05-02 21:33:00,22.0,8.0,-100.00,NNE,33,5.0,15.0,53,0.00,,,0.50,1.000000,,2013-05-03 03:33:00,
2013-05-02 21:42:00,22.0,8.0,-100.00,NNE,33,5.0,15.0,53,0.00,,,0.50,1.000000,,2013-05-03 03:42:00,
2013-05-02 21:52:00,22.0,8.0,-100.00,NNE,33,5.0,15.0,53,0.00,,,0.50,1.000000,,2013-05-03 03:52:00,
2013-05-02 22:12:00,22.0,7.0,-100.00,NE,44,4.0,9.0,52,0.00,,,0.50,0.000000,,2013-05-03 04:12:00,
2013-05-02 22:23:00,22.0,7.0,-100.00,NE,44,4.0,9.0,52,0.00,,,0.50,0.000000,,2013-05-03 04:23:00,
2013-05-02 22:32:00,22.0,7.0,-100.00,NE,44,4.0,9.0,52,0.00,,,0.50,0.000000,,2013-05-03 04:32:00,
2013-05-02 22:42:00,22.0,7.0,-100.00,NE,44,4.0,9.0,52,0.00,,,0.50,0.000000,,2013-05-03 04:42:00,
2013-05-02 22:52:00,22.0,7.0,-100.00,NE,44,4.0,9.0,52,0.00,,,0.50,0.000000,,2013-05-03 04:52:00,
2013-05-02 23:21:00,20.0,6.0,-100.00,ENE,60,2.0,10.0,53,0.00,,,0.50,0.000000,,2013-05-03 05:21:00,
2013-05-02 23:32:00,20.0,6.0,-100.00,ENE,60,2.0,10.0,53,0.00,,,0.50,0.000000,,2013-05-03 05:32:00,
2013-05-02 23:42:00,20.0,6.0,-100.00,ENE,60,2.0,10.0,53,0.00,,,0.50,0.000000,,2013-05-03 05:42:00,
2013-05-02 23:52:00,20.0,6.0,-100.00,ENE,60,2.0,10.0,53,0.00,,,0.50,0.000000,,2013-05-03 05:52:00,